,,PressureMeas_1m,,PRMeasQMR101_1,,RHStat155_1m_1,,SRMeasQMS101R_1m,,TAStat155_1m_1,,GenWind_1,,GenWind_1,
2018-09-25, 00:00:06,VALID,919.51,VALID,0.0,VALID,99.009,VALID,0.006,VALID,19.232,INVALID,360.0,VALID,0.0,
2018-09-25, 00:01:06,VALID,919.479,VALID,0.0,VALID,99.03,VALID,0.016,VALID,19.228,INVALID,360.0,VALID,0.0,
2018-09-25, 00:02:06,VALID,919.46,VALID,0.0,VALID,99.029,VALID,0.014,VALID,19.229,INVALID,360.0,VALID,0.0,
2018-09-25, 00:03:06,VALID,919.453,VALID,0.0,VALID,99.019,VALID,0.009,VALID,19.243,VALID,48.0,VALID,0.0,
2018-09-25, 00:04:06,VALID,919.456,VALID,0.0,VALID,99.011,VALID,0.0,VALID,19.241,INVALID,360.0,VALID,0.0,
2018-09-25, 00:05:06,VALID,919.443,VALID,0.0,VALID,98.992,VALID,-0.004,VALID,19.209,INVALID,360.0,VALID,0.0,
2018-09-25, 00:06:06,VALID,919.452,VALID,0.0,VALID,98.991,VALID,0.005,VALID,19.202,INVALID,360.0,VALID,0.0,
2018-09-25, 00:07:06,VALID,919.466,VALID,0.0,VALID,99.003,VALID,-0.009,VALID,19.208,INVALID,360.0,VALID,0.0,
2018-09-25, 00:08:06,VALID,919.455,VALID,0.0,VALID,99.003,VALID,0.024,VALID,19.209,INVALID,360.0,VALID,0.0,
2018-09-25, 00:09:06,VALID,919.428,VALID,0.0,VALID,99.012,VALID,0.008,VALID,19.23,INVALID,360.0,VALID,0.0,
2018-09-25, 00:10:06,VALID,919.414,VALID,0.0,VALID,99.012,VALID,0.008,VALID,19.238,INVALID,360.0,VALID,0.0,
2018-09-25, 00:11:06,VALID,919.409,VALID,0.0,VALID,99.022,VALID,0.014,VALID,19.25,INVALID,360.0,VALID,0.0,
2018-09-25, 00:12:06,VALID,919.383,VALID,0.0,VALID,98.996,VALID,-0.001,VALID,19.259,INVALID,360.0,VALID,0.0,
2018-09-25, 00:13:06,VALID,919.381,VALID,0.0,VALID,98.997,VALID,0.025,VALID,19.265,INVALID,360.0,VALID,0.0,
2018-09-25, 00:14:06,VALID,919.352,VALID,0.0,VALID,98.986,VALID,-0.01,VALID,19.269,INVALID,360.0,VALID,0.0,
2018-09-25, 00:15:06,VALID,919.329,VALID,0.0,VALID,98.963,VALID,0.002,VALID,19.266,INVALID,360.0,VALID,0.0,
2018-09-25, 00:16:06,VALID,919.314,VALID,0.0,VALID,98.978,VALID,-0.007,VALID,19.272,INVALID,360.0,VALID,0.0,
2018-09-25, 00:17:06,VALID,919.295,VALID,0.0,VALID,98.969,VALID,0.003,VALID,19.265,INVALID,360.0,VALID,0.0,
2018-09-25, 00:18:06,VALID,919.28,VALID,0.0,VALID,98.943,VALID,0.022,VALID,19.241,INVALID,360.0,VALID,0.0,
2018-09-25, 00:19:06,VALID,919.305,VALID,0.0,VALID,98.89,VALID,0.023,VALID,19.194,INVALID,360.0,VALID,0.0,
2018-09-25, 00:20:06,VALID,919.27,VALID,0.0,VALID,98.929,VALID,0.016,VALID,19.187,INVALID,360.0,VALID,0.0,
2018-09-25, 00:21:06,VALID,919.283,VALID,0.0,VALID,98.877,VALID,0.009,VALID,19.163,INVALID,360.0,VALID,0.0,
2018-09-25, 00:22:06,VALID,919.264,VALID,0.0,VALID,98.851,VALID,0.001,VALID,19.136,INVALID,360.0,VALID,0.0,
2018-09-25, 00:23:06,VALID,919.276,VALID,0.0,VALID,98.842,VALID,0.031,VALID,19.107,INVALID,360.0,VALID,0.0,
2018-09-25, 00:24:06,VALID,919.283,VALID,0.0,VALID,98.816,VALID,0.007,VALID,19.081,INVALID,360.0,VALID,0.0,
2018-09-25, 00:25:06,VALID,919.282,VALID,0.0,VALID,98.813,VALID,0.042,VALID,19.08,INVALID,360.0,VALID,0.0,
2018-09-25, 00:26:06,VALID,919.25,VALID,0.0,VALID,98.816,VALID,0.027,VALID,19.093,INVALID,360.0,VALID,0.0,
2018-09-25, 00:27:06,VALID,919.255,VALID,0.0,VALID,98.82,VALID,0.037,VALID,19.093,INVALID,360.0,VALID,0.0,
2018-09-25, 00:28:06,VALID,919.248,VALID,0.0,VALID,98.817,VALID,0.025,VALID,19.095,INVALID,360.0,VALID,0.0,
2018-09-25, 00:29:06,VALID,919.219,VALID,0.0,VALID,98.821,VALID,0.025,VALID,19.122,INVALID,360.0,VALID,0.0,
2018-09-25, 00:30:06,VALID,919.223,VALID,0.0,VALID,98.826,VALID,0.024,VALID,19.14,INVALID,360.0,VALID,0.0,
2018-09-25, 00:31:06,VALID,919.218,VALID,0.0,VALID,98.805,VALID,0.044,VALID,19.138,INVALID,360.0,VALID,0.0,
2018-09-25, 00:32:06,VALID,919.225,VALID,0.0,VALID,98.808,VALID,0.028,VALID,19.142,INVALID,360.0,VALID,0.0,
2018-09-25, 00:33:06,VALID,919.223,VALID,0.0,VALID,98.797,VALID,0.038,VALID,19.155,INVALID,360.0,VALID,0.0,
2018-09-25, 00:34:06,VALID,919.21,VALID,0.0,VALID,98.847,VALID,0.027,VALID,19.171,INVALID,360.0,VALID,0.0,
2018-09-25, 00:35:06,VALID,919.207,VALID,0.0,VALID,98.834,VALID,0.041,VALID,19.196,INVALID,360.0,VALID,0.0,
2018-09-25, 00:36:06,VALID,919.196,VALID,0.0,VALID,98.823,VALID,0.036,VALID,19.221,INVALID,360.0,VALID,0.0,
2018-09-25, 00:37:06,VALID,919.191,VALID,0.0,VALID,98.823,VALID,0.032,VALID,19.241,INVALID,360.0,VALID,0.0,
2018-09-25, 00:38:06,VALID,919.171,VALID,0.0,VALID,98.819,VALID,-0.01,VALID,19.247,INVALID,360.0,VALID,0.0,
2018-09-25, 00:39:06,VALID,919.157,VALID,0.0,VALID,98.805,VALID,-0.007,VALID,19.261,INVALID,360.0,VALID,0.0,
2018-09-25, 00:40:06,VALID,919.146,VALID,0.0,VALID,98.805,VALID,-0.005,VALID,19.267,INVALID,360.0,VALID,0.0,
2018-09-25, 00:41:06,VALID,919.14,VALID,0.0,VALID,98.807,VALID,0.005,VALID,19.279,INVALID,360.0,VALID,0.0,
2018-09-25, 00:42:06,VALID,919.139,VALID,0.0,VALID,98.812,VALID,0.008,VALID,19.306,INVALID,360.0,VALID,0.0,
2018-09-25, 00:43:06,VALID,919.141,VALID,0.0,VALID,98.836,VALID,-0.009,VALID,19.326,INVALID,360.0,VALID,0.0,
2018-09-25, 00:44:06,VALID,919.145,VALID,0.0,VALID,98.841,VALID,0.008,VALID,19.35,INVALID,360.0,VALID,0.0,
2018-09-25, 00:45:06,VALID,919.139,VALID,0.0,VALID,98.861,VALID,-0.004,VALID,19.363,INVALID,360.0,VALID,0.0,
2018-09-25, 00:46:06,VALID,919.138,VALID,0.0,VALID,98.84,VALID,-0.005,VALID,19.364,INVALID,360.0,VALID,0.0,
2018-09-25, 00:47:06,VALID,919.121,VALID,0.0,VALID,98.871,VALID,0.014,VALID,19.359,INVALID,360.0,VALID,0.0,
2018-09-25, 00:48:06,VALID,919.136,VALID,0.0,VALID,98.869,VALID,0.011,VALID,19.355,INVALID,360.0,VALID,0.0,
2018-09-25, 00:49:06,VALID,919.126,VALID,0.0,VALID,98.829,VALID,-0.002,VALID,19.346,INVALID,360.0,VALID,0.0,
2018-09-25, 00:50:06,VALID,919.104,VALID,0.0,VALID,98.847,VALID,0.003,VALID,19.341,INVALID,360.0,VALID,0.0,
2018-09-25, 00:51:06,VALID,919.113,VALID,0.0,VALID,98.869,VALID,0.009,VALID,19.343,INVALID,360.0,VALID,0.0,
2018-09-25, 00:52:06,VALID,919.118,VALID,0.0,VALID,98.853,VALID,0.012,VALID,19.343,INVALID,360.0,VALID,0.0,
2018-09-25, 00:53:06,VALID,919.122,VALID,0.0,VALID,98.871,VALID,-0.026,VALID,19.354,INVALID,360.0,VALID,0.0,
2018-09-25, 00:54:06,VALID,919.12,VALID,0.0,VALID,98.889,VALID,-0.049,VALID,19.358,INVALID,360.0,VALID,0.0,
2018-09-25, 00:55:06,VALID,919.117,VALID,0.0,VALID,98.885,VALID,-0.023,VALID,19.367,INVALID,360.0,VALID,0.0,
2018-09-25, 00:56:06,VALID,919.128,VALID,0.0,VALID,98.924,VALID,-0.016,VALID,19.391,INVALID,360.0,VALID,0.0,
2018-09-25, 00:57:06,VALID,919.13,VALID,0.0,VALID,98.881,VALID,-0.021,VALID,19.382,INVALID,360.0,VALID,0.0,
2018-09-25, 00:58:06,VALID,919.148,VALID,0.0,VALID,98.865,VALID,-0.039,VALID,19.364,INVALID,360.0,VALID,0.0,
2018-09-25, 00:59:06,VALID,919.135,VALID,0.0,VALID,98.846,VALID,-0.032,VALID,19.329,INVALID,360.0,VALID,0.0,
2018-09-25, 01:00:06,VALID,919.114,VALID,0.0,VALID,98.84,VALID,-0.038,VALID,19.32,INVALID,360.0,VALID,0.0,
2018-09-25, 01:01:06,VALID,919.086,VALID,0.0,VALID,98.874,VALID,-0.05,VALID,19.339,INVALID,360.0,VALID,0.0,
2018-09-25, 01:02:06,VALID,919.084,VALID,0.0,VALID,98.877,VALID,-0.051,VALID,19.344,INVALID,360.0,VALID,0.0,
2018-09-25, 01:03:06,VALID,919.068,VALID,0.0,VALID,98.872,VALID,-0.048,VALID,19.354,INVALID,360.0,VALID,0.0,
2018-09-25, 01:04:06,VALID,919.026,VALID,0.0,VALID,98.867,VALID,-0.039,VALID,19.356,INVALID,360.0,VALID,0.0,
2018-09-25, 01:05:06,VALID,919.03,VALID,0.0,VALID,98.843,VALID,-0.049,VALID,19.336,INVALID,360.0,VALID,0.0,
2018-09-25, 01:06:06,VALID,919.032,VALID,0.0,VALID,98.803,VALID,-0.038,VALID,19.315,INVALID,360.0,VALID,0.0,
2018-09-25, 01:07:06,VALID,919.009,VALID,0.0,VALID,98.81,VALID,-0.022,VALID,19.318,INVALID,360.0,VALID,0.0,
2018-09-25, 01:08:06,VALID,918.998,VALID,0.0,VALID,98.796,VALID,0.009,VALID,19.308,INVALID,360.0,VALID,0.0,
2018-09-25, 01:09:06,VALID,918.98,VALID,0.0,VALID,98.779,VALID,-0.006,VALID,19.303,INVALID,360.0,VALID,0.0,
2018-09-25, 01:10:06,VALID,918.955,VALID,0.0,VALID,98.772,VALID,-0.003,VALID,19.307,INVALID,360.0,VALID,0.0,
2018-09-25, 01:11:06,VALID,918.944,VALID,0.0,VALID,98.769,VALID,-0.006,VALID,19.323,INVALID,360.0,VALID,0.0,
2018-09-25, 01:12:06,VALID,918.93,VALID,0.0,VALID,98.758,VALID,-0.006,VALID,19.326,INVALID,360.0,VALID,0.0,
2018-09-25, 01:13:06,VALID,918.914,VALID,0.0,VALID,98.759,VALID,-0.003,VALID,19.332,INVALID,360.0,VALID,0.0,
2018-09-25, 01:14:06,VALID,918.902,VALID,0.0,VALID,98.777,VALID,-0.0,VALID,19.329,INVALID,360.0,VALID,0.0,
2018-09-25, 01:15:06,VALID,918.903,VALID,0.0,VALID,98.739,VALID,-0.008,VALID,19.325,INVALID,360.0,VALID,0.0,
2018-09-25, 01:16:06,VALID,918.891,VALID,0.0,VALID,98.736,VALID,-0.003,VALID,19.335,INVALID,360.0,VALID,0.0,
2018-09-25, 01:17:06,VALID,918.874,VALID,0.0,VALID,98.732,VALID,-0.023,VALID,19.345,INVALID,360.0,VALID,0.0,
2018-09-25, 01:18:06,VALID,918.884,VALID,0.0,VALID,98.747,VALID,-0.012,VALID,19.364,INVALID,360.0,VALID,0.0,
2018-09-25, 01:19:06,VALID,918.888,VALID,0.0,VALID,98.761,VALID,-0.006,VALID,19.379,INVALID,360.0,VALID,0.0,
2018-09-25, 01:20:06,VALID,918.878,VALID,0.0,VALID,98.763,VALID,-0.004,VALID,19.405,INVALID,360.0,VALID,0.0,
2018-09-25, 01:21:06,VALID,918.882,VALID,0.0,VALID,98.76,VALID,-0.005,VALID,19.41,INVALID,360.0,VALID,0.0,
2018-09-25, 01:22:06,VALID,918.856,VALID,0.0,VALID,98.748,VALID,0.002,VALID,19.388,INVALID,360.0,VALID,0.0,
2018-09-25, 01:23:06,VALID,918.866,VALID,0.0,VALID,98.732,VALID,-0.011,VALID,19.386,INVALID,360.0,VALID,0.0,
2018-09-25, 01:24:06,VALID,918.851,VALID,0.0,VALID,98.77,VALID,-0.024,VALID,19.4,INVALID,360.0,VALID,0.0,
2018-09-25, 01:25:06,VALID,918.858,VALID,0.0,VALID,98.743,VALID,-0.012,VALID,19.387,INVALID,360.0,VALID,0.0,
2018-09-25, 01:26:06,VALID,918.842,VALID,0.0,VALID,98.717,VALID,-0.013,VALID,19.381,INVALID,360.0,VALID,0.0,
2018-09-25, 01:27:06,VALID,918.854,VALID,0.0,VALID,98.718,VALID,-0.017,VALID,19.376,INVALID,360.0,VALID,0.0,
2018-09-25, 01:28:06,VALID,918.854,VALID,0.0,VALID,98.71,VALID,-0.014,VALID,19.384,INVALID,360.0,VALID,0.0,
2018-09-25, 01:29:06,VALID,918.833,VALID,0.0,VALID,98.682,VALID,-0.023,VALID,19.384,INVALID,360.0,VALID,0.0,
2018-09-25, 01:30:06,VALID,918.83,VALID,0.0,VALID,98.674,VALID,-0.02,VALID,19.395,INVALID,360.0,VALID,0.0,
2018-09-25, 01:31:06,VALID,918.811,VALID,0.0,VALID,98.662,VALID,-0.014,VALID,19.395,INVALID,360.0,VALID,0.0,
2018-09-25, 01:32:06,VALID,918.803,VALID,0.0,VALID,98.635,VALID,-0.022,VALID,19.381,INVALID,360.0,VALID,0.0,
2018-09-25, 01:33:06,VALID,918.789,VALID,0.0,VALID,98.651,VALID,-0.014,VALID,19.371,INVALID,360.0,VALID,0.0,
2018-09-25, 01:34:06,VALID,918.783,VALID,0.0,VALID,98.625,VALID,-0.012,VALID,19.35,INVALID,360.0,VALID,0.0,
2018-09-25, 01:35:06,VALID,918.788,VALID,0.0,VALID,98.622,VALID,-0.045,VALID,19.344,INVALID,360.0,VALID,0.0,
2018-09-25, 01:36:06,VALID,918.772,VALID,0.0,VALID,98.631,VALID,-0.013,VALID,19.325,INVALID,360.0,VALID,0.0,
2018-09-25, 01:37:06,VALID,918.775,VALID,0.0,VALID,98.619,VALID,-0.021,VALID,19.299,INVALID,360.0,VALID,0.0,
2018-09-25, 01:38:06,VALID,918.746,VALID,0.0,VALID,98.617,VALID,0.001,VALID,19.285,INVALID,360.0,VALID,0.0,
2018-09-25, 01:39:06,VALID,918.746,VALID,0.0,VALID,98.613,VALID,-0.004,VALID,19.269,INVALID,360.0,VALID,0.0,
2018-09-25, 01:40:06,VALID,918.732,VALID,0.0,VALID,98.633,VALID,-0.004,VALID,19.261,INVALID,360.0,VALID,0.0,
2018-09-25, 01:41:06,VALID,918.726,VALID,0.0,VALID,98.634,VALID,-0.007,VALID,19.242,INVALID,360.0,VALID,0.0,
2018-09-25, 01:42:06,VALID,918.702,VALID,0.0,VALID,98.612,VALID,-0.003,VALID,19.212,INVALID,360.0,VALID,0.0,
2018-09-25, 01:43:06,VALID,918.704,VALID,0.0,VALID,98.611,VALID,-0.002,VALID,19.182,INVALID,360.0,VALID,0.0,
2018-09-25, 01:44:06,VALID,918.694,VALID,0.0,VALID,98.612,VALID,-0.0,VALID,19.168,INVALID,360.0,VALID,0.0,
2018-09-25, 01:45:06,VALID,918.688,VALID,0.0,VALID,98.626,VALID,0.002,VALID,19.168,INVALID,360.0,VALID,0.0,
2018-09-25, 01:46:06,VALID,918.695,VALID,0.0,VALID,98.637,VALID,0.001,VALID,19.157,INVALID,360.0,VALID,0.0,
2018-09-25, 01:47:06,VALID,918.688,VALID,0.0,VALID,98.64,VALID,-0.006,VALID,19.14,INVALID,360.0,VALID,0.0,
2018-09-25, 01:48:06,VALID,918.676,VALID,0.0,VALID,98.647,VALID,0.012,VALID,19.125,INVALID,360.0,VALID,0.0,
2018-09-25, 01:49:06,VALID,918.666,VALID,0.0,VALID,98.632,VALID,0.004,VALID,19.123,INVALID,360.0,VALID,0.0,
2018-09-25, 01:50:06,VALID,918.649,VALID,0.0,VALID,98.643,VALID,0.013,VALID,19.106,INVALID,360.0,VALID,0.0,
2018-09-25, 01:51:06,VALID,918.649,VALID,0.0,VALID,98.638,VALID,-0.005,VALID,19.087,INVALID,360.0,VALID,0.0,
2018-09-25, 01:52:06,VALID,918.608,VALID,0.0,VALID,98.648,VALID,-0.003,VALID,19.08,INVALID,360.0,VALID,0.0,
2018-09-25, 01:53:06,VALID,918.619,VALID,0.0,VALID,98.643,VALID,-0.036,VALID,19.062,INVALID,360.0,VALID,0.0,
2018-09-25, 01:54:06,VALID,918.62,VALID,0.0,VALID,98.643,VALID,-0.015,VALID,19.036,INVALID,360.0,VALID,0.0,
2018-09-25, 01:55:06,VALID,918.605,VALID,0.0,VALID,98.621,VALID,-0.016,VALID,19.008,INVALID,360.0,VALID,0.0,
2018-09-25, 01:56:06,VALID,918.622,VALID,0.0,VALID,98.617,VALID,-0.028,VALID,18.985,INVALID,360.0,VALID,0.0,
2018-09-25, 01:57:06,VALID,918.644,VALID,0.0,VALID,98.615,VALID,-0.018,VALID,18.972,INVALID,360.0,VALID,0.0,
2018-09-25, 01:58:06,VALID,918.642,VALID,0.0,VALID,98.626,VALID,-0.025,VALID,18.961,INVALID,360.0,VALID,0.0,
2018-09-25, 01:59:06,VALID,918.65,VALID,0.0,VALID,98.634,VALID,0.002,VALID,18.944,INVALID,360.0,VALID,0.0,
2018-09-25, 02:00:06,VALID,918.667,VALID,0.0,VALID,98.631,VALID,-0.014,VALID,18.938,INVALID,360.0,VALID,0.0,
2018-09-25, 02:01:06,VALID,918.655,VALID,0.0,VALID,98.676,VALID,-0.009,VALID,18.971,INVALID,360.0,VALID,0.0,
2018-09-25, 02:02:06,VALID,918.628,VALID,0.0,VALID,98.72,VALID,-0.014,VALID,18.994,INVALID,360.0,VALID,0.0,
2018-09-25, 02:03:06,VALID,918.621,VALID,0.0,VALID,98.768,VALID,-0.019,VALID,19.04,INVALID,360.0,VALID,0.0,
2018-09-25, 02:04:06,VALID,918.597,VALID,0.0,VALID,98.767,VALID,-0.004,VALID,19.054,INVALID,360.0,VALID,0.0,
2018-09-25, 02:05:06,VALID,918.591,VALID,0.0,VALID,98.73,VALID,-0.006,VALID,19.022,INVALID,360.0,VALID,0.0,
2018-09-25, 02:06:07,VALID,918.561,VALID,0.0,VALID,98.722,VALID,-0.026,VALID,18.995,INVALID,360.0,VALID,0.0,
2018-09-25, 02:07:07,VALID,918.535,VALID,0.0,VALID,98.727,VALID,-0.019,VALID,19.001,INVALID,360.0,VALID,0.0,
2018-09-25, 02:08:07,VALID,918.519,VALID,0.0,VALID,98.768,VALID,-0.047,VALID,19.028,INVALID,360.0,VALID,0.0,
2018-09-25, 02:09:07,VALID,918.49,VALID,0.0,VALID,98.801,VALID,-0.053,VALID,19.052,INVALID,360.0,VALID,0.0,
2018-09-25, 02:10:07,VALID,918.463,VALID,0.0,VALID,98.74,VALID,-0.049,VALID,19.042,INVALID,360.0,VALID,0.0,
2018-09-25, 02:11:07,VALID,918.46,VALID,0.0,VALID,98.747,VALID,-0.056,VALID,19.029,INVALID,360.0,VALID,0.0,
2018-09-25, 02:12:07,VALID,918.456,VALID,0.0,VALID,98.752,VALID,-0.047,VALID,19.028,INVALID,360.0,VALID,0.0,
2018-09-25, 02:13:07,VALID,918.446,VALID,0.0,VALID,98.749,VALID,-0.06,VALID,19.014,INVALID,360.0,VALID,0.0,
2018-09-25, 02:14:07,VALID,918.44,VALID,0.0,VALID,98.696,VALID,-0.066,VALID,18.96,INVALID,360.0,VALID,0.0,
2018-09-25, 02:15:07,VALID,918.441,VALID,0.0,VALID,98.692,VALID,-0.059,VALID,18.945,INVALID,360.0,VALID,0.0,
2018-09-25, 02:16:07,VALID,918.424,VALID,0.0,VALID,98.756,VALID,-0.042,VALID,18.998,INVALID,360.0,VALID,0.0,
2018-09-25, 02:17:07,VALID,918.413,VALID,0.0,VALID,98.78,VALID,-0.05,VALID,19.037,INVALID,360.0,VALID,0.0,
2018-09-25, 02:18:07,VALID,918.388,VALID,0.0,VALID,98.766,VALID,-0.058,VALID,19.041,INVALID,360.0,VALID,0.0,
2018-09-25, 02:19:07,VALID,918.382,VALID,0.0,VALID,98.725,VALID,-0.049,VALID,19.016,INVALID,360.0,VALID,0.0,
2018-09-25, 02:20:07,VALID,918.345,VALID,0.0,VALID,98.725,VALID,-0.064,VALID,19.006,INVALID,360.0,VALID,0.0,
2018-09-25, 02:21:07,VALID,918.312,VALID,0.0,VALID,98.744,VALID,-0.056,VALID,19.022,INVALID,360.0,VALID,0.0,
2018-09-25, 02:22:07,VALID,918.273,VALID,0.0,VALID,98.75,VALID,-0.055,VALID,19.038,INVALID,360.0,VALID,0.0,
2018-09-25, 02:23:07,VALID,918.262,VALID,0.0,VALID,98.738,VALID,0.024,VALID,19.033,INVALID,360.0,VALID,0.0,
2018-09-25, 02:24:07,VALID,918.256,VALID,0.0,VALID,98.693,VALID,0.012,VALID,18.998,INVALID,360.0,VALID,0.0,
2018-09-25, 02:25:07,VALID,918.244,VALID,0.0,VALID,98.633,VALID,0.016,VALID,18.93,INVALID,360.0,VALID,0.0,
2018-09-25, 02:26:07,VALID,918.244,VALID,0.0,VALID,98.649,VALID,0.025,VALID,18.905,INVALID,360.0,VALID,0.0,
2018-09-25, 02:27:07,VALID,918.244,VALID,0.0,VALID,98.664,VALID,0.013,VALID,18.891,INVALID,360.0,VALID,0.0,
2018-09-25, 02:28:07,VALID,918.211,VALID,0.0,VALID,98.596,VALID,0.024,VALID,18.836,INVALID,360.0,VALID,0.0,
2018-09-25, 02:29:07,VALID,918.208,VALID,0.0,VALID,98.588,VALID,0.024,VALID,18.821,INVALID,360.0,VALID,0.0,
2018-09-25, 02:30:07,VALID,918.202,VALID,0.0,VALID,98.626,VALID,0.022,VALID,18.834,INVALID,360.0,VALID,0.0,
2018-09-25, 02:31:07,VALID,918.201,VALID,0.0,VALID,98.626,VALID,0.006,VALID,18.838,INVALID,360.0,VALID,0.0,
2018-09-25, 02:32:07,VALID,918.193,VALID,0.0,VALID,98.625,VALID,0.01,VALID,18.829,INVALID,360.0,VALID,0.0,
2018-09-25, 02:33:07,VALID,918.19,VALID,0.0,VALID,98.669,VALID,0.011,VALID,18.85,INVALID,360.0,VALID,0.0,
2018-09-25, 02:34:07,VALID,918.196,VALID,0.0,VALID,98.669,VALID,0.027,VALID,18.867,INVALID,360.0,VALID,0.0,
2018-09-25, 02:35:07,VALID,918.203,VALID,0.0,VALID,98.708,VALID,0.022,VALID,18.893,INVALID,360.0,VALID,0.0,
2018-09-25, 02:36:07,VALID,918.197,VALID,0.0,VALID,98.69,VALID,0.028,VALID,18.898,INVALID,360.0,VALID,0.0,
2018-09-25, 02:37:07,VALID,918.206,VALID,0.0,VALID,98.583,VALID,0.03,VALID,18.821,INVALID,360.0,VALID,0.0,
2018-09-25, 02:38:07,VALID,918.178,VALID,0.0,VALID,98.534,VALID,-0.037,VALID,18.751,INVALID,360.0,VALID,0.0,
2018-09-25, 02:39:07,VALID,918.165,VALID,0.0,VALID,98.538,VALID,-0.004,VALID,18.725,INVALID,360.0,VALID,0.0,
2018-09-25, 02:40:07,VALID,918.157,VALID,0.0,VALID,98.714,VALID,-0.018,VALID,18.824,INVALID,360.0,VALID,0.0,
2018-09-25, 02:41:07,VALID,918.15,VALID,0.0,VALID,98.756,VALID,-0.029,VALID,18.915,INVALID,360.0,VALID,0.0,
2018-09-25, 02:42:07,VALID,918.141,VALID,0.0,VALID,98.702,VALID,-0.018,VALID,18.903,INVALID,360.0,VALID,0.0,
2018-09-25, 02:43:07,VALID,918.132,VALID,0.0,VALID,98.673,VALID,-0.039,VALID,18.859,INVALID,360.0,VALID,0.0,
2018-09-25, 02:44:07,VALID,918.129,VALID,0.0,VALID,98.614,VALID,-0.021,VALID,18.815,INVALID,360.0,VALID,0.0,
2018-09-25, 02:45:07,VALID,918.107,VALID,0.0,VALID,98.64,VALID,-0.032,VALID,18.809,INVALID,360.0,VALID,0.0,
2018-09-25, 02:46:07,VALID,918.1,VALID,0.0,VALID,98.66,VALID,-0.039,VALID,18.815,INVALID,360.0,VALID,0.0,
2018-09-25, 02:47:07,VALID,918.082,VALID,0.0,VALID,98.675,VALID,-0.033,VALID,18.827,INVALID,360.0,VALID,0.0,
2018-09-25, 02:48:07,VALID,918.06,VALID,0.0,VALID,98.745,VALID,-0.026,VALID,18.871,INVALID,360.0,VALID,0.0,
2018-09-25, 02:49:07,VALID,918.057,VALID,0.0,VALID,98.695,VALID,-0.023,VALID,18.856,INVALID,360.0,VALID,0.0,
2018-09-25, 02:50:07,VALID,918.042,VALID,0.0,VALID,98.711,VALID,-0.018,VALID,18.856,INVALID,360.0,VALID,0.0,
2018-09-25, 02:51:07,VALID,918.023,VALID,0.0,VALID,98.729,VALID,-0.033,VALID,18.883,INVALID,360.0,VALID,0.0,
2018-09-25, 02:52:07,VALID,918.007,VALID,0.0,VALID,98.795,VALID,-0.021,VALID,18.95,INVALID,360.0,VALID,0.0,
2018-09-25, 02:53:07,VALID,917.993,VALID,0.0,VALID,98.82,VALID,-0.02,VALID,19.01,INVALID,360.0,VALID,0.0,
2018-09-25, 02:54:07,VALID,917.937,VALID,0.0,VALID,98.821,VALID,-0.018,VALID,19.031,INVALID,360.0,VALID,0.0,
2018-09-25, 02:55:07,VALID,917.935,VALID,0.0,VALID,98.793,VALID,-0.027,VALID,18.995,INVALID,360.0,VALID,0.0,
2018-09-25, 02:56:07,VALID,917.915,VALID,0.0,VALID,98.775,VALID,0.008,VALID,18.947,INVALID,360.0,VALID,0.0,
2018-09-25, 02:57:07,VALID,917.907,VALID,0.0,VALID,98.727,VALID,-0.007,VALID,18.886,INVALID,360.0,VALID,0.0,
2018-09-25, 02:58:07,VALID,917.886,VALID,0.0,VALID,98.721,VALID,0.007,VALID,18.845,INVALID,360.0,VALID,0.0,
2018-09-25, 02:59:07,VALID,917.91,VALID,0.0,VALID,98.695,VALID,-0.01,VALID,18.781,INVALID,360.0,VALID,0.0,
2018-09-25, 03:00:07,VALID,917.884,VALID,0.0,VALID,98.647,VALID,-0.035,VALID,18.698,INVALID,360.0,VALID,0.0,
2018-09-25, 03:01:07,VALID,917.87,VALID,0.0,VALID,98.622,VALID,-0.029,VALID,18.659,INVALID,360.0,VALID,0.0,
2018-09-25, 03:02:07,VALID,917.87,VALID,0.0,VALID,98.649,VALID,-0.018,VALID,18.637,INVALID,360.0,VALID,0.0,
2018-09-25, 03:03:07,VALID,917.854,VALID,0.0,VALID,98.632,VALID,-0.016,VALID,18.604,INVALID,360.0,VALID,0.0,
2018-09-25, 03:04:07,VALID,917.824,VALID,0.0,VALID,98.648,VALID,-0.004,VALID,18.604,INVALID,360.0,VALID,0.0,
2018-09-25, 03:05:07,VALID,917.806,VALID,0.0,VALID,98.669,VALID,0.004,VALID,18.617,INVALID,360.0,VALID,0.0,
2018-09-25, 03:06:07,VALID,917.8,VALID,0.0,VALID,98.711,VALID,-0.015,VALID,18.643,INVALID,360.0,VALID,0.0,
2018-09-25, 03:07:07,VALID,917.806,VALID,0.0,VALID,98.72,VALID,-0.016,VALID,18.632,INVALID,360.0,VALID,0.0,
2018-09-25, 03:08:07,VALID,917.822,VALID,0.0,VALID,98.683,VALID,-0.014,VALID,18.598,INVALID,360.0,VALID,0.0,
2018-09-25, 03:09:07,VALID,917.825,VALID,0.0,VALID,98.696,VALID,-0.012,VALID,18.568,INVALID,360.0,VALID,0.0,
2018-09-25, 03:10:07,VALID,917.828,VALID,0.0,VALID,98.716,VALID,-0.048,VALID,18.58,INVALID,360.0,VALID,0.0,
2018-09-25, 03:11:07,VALID,917.806,VALID,0.0,VALID,98.789,VALID,-0.024,VALID,18.648,INVALID,360.0,VALID,0.0,
2018-09-25, 03:12:07,VALID,917.838,VALID,0.0,VALID,98.852,VALID,-0.035,VALID,18.71,INVALID,360.0,VALID,0.0,
2018-09-25, 03:13:07,VALID,917.806,VALID,0.0,VALID,98.705,VALID,-0.015,VALID,18.541,INVALID,360.0,VALID,0.0,
2018-09-25, 03:14:07,VALID,917.789,VALID,0.0,VALID,98.58,VALID,-0.025,VALID,18.391,INVALID,360.0,VALID,0.0,
2018-09-25, 03:15:07,VALID,917.767,VALID,0.0,VALID,98.619,VALID,-0.032,VALID,18.358,INVALID,360.0,VALID,0.0,
2018-09-25, 03:16:07,VALID,917.762,VALID,0.0,VALID,98.723,VALID,-0.02,VALID,18.408,INVALID,360.0,VALID,0.0,
2018-09-25, 03:17:07,VALID,917.747,VALID,0.0,VALID,98.675,VALID,-0.033,VALID,18.388,INVALID,360.0,VALID,0.0,
2018-09-25, 03:18:07,VALID,917.75,VALID,0.0,VALID,98.703,VALID,-0.029,VALID,18.367,INVALID,360.0,VALID,0.0,
2018-09-25, 03:19:07,VALID,917.741,VALID,0.0,VALID,98.717,VALID,-0.014,VALID,18.336,INVALID,360.0,VALID,0.0,
2018-09-25, 03:20:07,VALID,917.741,VALID,0.0,VALID,98.624,VALID,-0.013,VALID,18.226,INVALID,360.0,VALID,0.0,
2018-09-25, 03:21:07,VALID,917.724,VALID,0.0,VALID,98.614,VALID,-0.025,VALID,18.188,INVALID,360.0,VALID,0.0,
2018-09-25, 03:22:07,VALID,917.723,VALID,0.0,VALID,98.588,VALID,-0.028,VALID,18.155,INVALID,360.0,VALID,0.0,
2018-09-25, 03:23:07,VALID,917.699,VALID,0.0,VALID,98.581,VALID,-0.046,VALID,18.137,INVALID,360.0,VALID,0.0,
2018-09-25, 03:24:07,VALID,917.695,VALID,0.0,VALID,98.702,VALID,-0.043,VALID,18.222,INVALID,360.0,VALID,0.0,
2018-09-25, 03:25:07,VALID,917.695,VALID,0.0,VALID,98.725,VALID,-0.029,VALID,18.242,INVALID,360.0,VALID,0.0,
2018-09-25, 03:26:07,VALID,917.662,VALID,0.0,VALID,98.838,VALID,-0.028,VALID,18.32,INVALID,360.0,VALID,0.0,
2018-09-25, 03:27:07,VALID,917.631,VALID,0.0,VALID,98.913,VALID,-0.01,VALID,18.446,INVALID,360.0,VALID,0.0,
2018-09-25, 03:28:07,VALID,917.604,VALID,0.0,VALID,98.972,VALID,-0.023,VALID,18.538,INVALID,360.0,VALID,0.0,
2018-09-25, 03:29:07,VALID,917.566,VALID,0.0,VALID,99.005,VALID,-0.015,VALID,18.656,INVALID,360.0,VALID,0.0,
2018-09-25, 03:30:07,VALID,917.548,VALID,0.0,VALID,99.004,VALID,-0.018,VALID,18.683,INVALID,360.0,VALID,0.0,
2018-09-25, 03:31:07,VALID,917.541,VALID,0.0,VALID,98.979,VALID,-0.041,VALID,18.671,INVALID,360.0,VALID,0.0,
2018-09-25, 03:32:07,VALID,917.55,VALID,0.0,VALID,98.94,VALID,-0.014,VALID,18.662,INVALID,360.0,VALID,0.0,
2018-09-25, 03:33:07,VALID,917.544,VALID,0.0,VALID,98.997,VALID,-0.018,VALID,18.69,INVALID,360.0,VALID,0.0,
2018-09-25, 03:34:07,VALID,917.56,VALID,0.0,VALID,98.931,VALID,-0.021,VALID,18.626,INVALID,360.0,VALID,0.0,
2018-09-25, 03:35:07,VALID,917.575,VALID,0.0,VALID,98.908,VALID,-0.017,VALID,18.575,INVALID,360.0,VALID,0.0,
2018-09-25, 03:36:07,VALID,917.579,VALID,0.0,VALID,98.987,VALID,-0.02,VALID,18.602,INVALID,360.0,VALID,0.0,
2018-09-25, 03:37:07,VALID,917.58,VALID,0.0,VALID,98.99,VALID,-0.024,VALID,18.623,INVALID,360.0,VALID,0.0,